Погода в Войково

Россия / Республика Крым     45°23′05″N   36°26′05″E
темп.,
°C
ветер,
м/с
пор.,
м/с
влажн.,
%
обл.,
%
осадки,
мм/ч
давл.,
гПа
погр.,
м
10 мая, пн
пн1000:00+13сз8105418 0.3 10241879
03:00+12ссз810540 0.4 10251795
06:00+12ссз710534 0.0 10251842
09:00+12ссз68540 0.0 10251270
12:00+12ссз77560 0.0 10251171
15:00+12зсз67520 0.0 10241060
18:00+13з885334 0.0 1022629
21:00+13зюз8106097 0.0 1020438
11 мая, вт
вт1100:00+12зюз91168100 0.0 1018475
03:00+13з101366100 0.1 10161686
06:00+12зсз121465100 0.2 10151429
09:00+11зсз101086100 0.7 1014913
12:00+12сз8983100 1.1 1014938
15:00+11с4583100 2.8 1015516
18:00+11св3383100 1.6 1015412
21:00+11в3382100 2.0 1015379
12 мая, ср
ср1200:00+11юв2281100 0.1 1014320
03:00+10в4486100 2.4 1013396
06:00+11в6591100 1.6 1013387
09:00+12ю4690100 2.8 1013574
12:00+13ю897999 1.0 1014749
15:00+15ю797031 1.0 1014527
18:00+14ю6769100 0.0 1014423
21:00+13ю237095 0.0 1014112
13 мая, чт
чт1300:00+14всв34695 0.0 101398
03:00+14всв5781100 0.0 1012188
06:00+14всв689021 0.0 1012214
09:00+14всв7887100 0.0 1012247
12:00+15в5784100 0.0 1011178
15:00+16всв578026 0.0 1010119
18:00+18вюв45770 0.0 101062
21:00+18вюв44810 0.0 101023
14 мая, пт
пт1400:00+17юв44910 0.0 100929
03:00+17зюз3368100 0.0 100912
06:00+16зсз336614 0.0 101021
09:00+16з2271100 0.0 101143
12:00+17сз4474100 0.0 101284
15:00+17ссз33695 0.0 101242
18:00+18сз23680 0.0 101122
21:00+17ссв33705 0.0 101112